Valley City, ND

7:46 AM CST on December 08, 2019 (GMT -0600)
Valley City

Weather History for KBAC - October, 2019

Change the Weather History Date:

Friday, October 11, 2019

  Actual Average (WUND) Record (WUND)
Temperature  
Mean Temperature 29 °F -  
Max Temperature 30 °F - - (-1)
Min Temperature 28 °F - - (-1)
Degree Days  
Heating Degree Days 36    
Moisture  
Dew Point 29 °F    
Average Humidity 100    
Maximum Humidity 100    
Minimum Humidity 100    
Precipitation  
Precipitation 0.00 in - - ()
Sea Level Pressure  
Sea Level Pressure 29.66 in    
Wind  
Wind Speed 29 mph (NW)    
Max Wind Speed 41 mph    
Max Gust Speed 56 mph    
Visibility 1 miles    
Events Fog , Rain , Snow    
Averages and records for this station are not official NWS values.
T = Trace of Precipitation, MM = Missing Value Source: NWS Daily Summary

Daily Weather History Graph

Daily Weather History Graph

Search for Another Location

Airport or City:

Astronomy

Oct. 11, 2019 Rise Set
Actual Time 7:44 AM CDT 6:52 PM CDT
Civil Twilight 7:13 AM CDT 7:23 PM CDT
Nautical Twilight 6:38 AM CDT 7:58 PM CDT
Astronomical Twilight 6:03 AM CDT 8:33 PM CDT
Moon 6:33 PM CDT (10/11) 5:12 AM CDT (10/11)
Length of Visible Light 12h 09m
Length of Day
11h 08m
Waxing Gibbous, 96% of the Moon is Illuminated
Oct 11
Waxing Gibbous
Oct 13
Full
Oct 21
Last Quarter
Oct 27
New
Nov 4
First Quarter

Hourly Weather History & Observations

Time (CDT) Temp. Windchill Dew Point Humidity Pressure Visibility Wind Dir Wind Speed Gust Speed Precip Events Conditions
12:15 AM 30.2 °F 16.8 °F 30.2 °F 100% 29.85 in 2.0 mi NNW 23.0 mph 29.9 mph N/A Snow Light Snow
12:35 AM 30.2 °F 17.1 °F 30.2 °F 100% 29.85 in 1.2 mi NNW 21.9 mph 29.9 mph N/A Snow Light Snow
12:55 AM 30.2 °F 17.4 °F 30.2 °F 100% 29.85 in 1.8 mi NNW 20.7 mph 28.8 mph N/A Snow Light Snow
1:15 AM 30.2 °F 17.8 °F 30.2 °F 100% 29.84 in 1.2 mi NW 19.6 mph 31.1 mph N/A Snow Light Snow
1:35 AM 30.2 °F 16.5 °F 30.2 °F 100% 29.82 in 1.0 mi NW 24.2 mph 32.2 mph N/A Snow Light Snow
1:55 AM 30.2 °F 15.9 °F 30.2 °F 100% 29.79 in 1.2 mi NNW 26.5 mph 32.2 mph N/A Snow Light Snow
2:15 AM 30.2 °F 16.8 °F 30.2 °F 100% 29.80 in 1.5 mi NW 23.0 mph 32.2 mph N/A Snow Light Snow
2:35 AM 30.2 °F 16.5 °F 30.2 °F 100% 29.79 in 1.5 mi NW 24.2 mph 32.2 mph N/A Snow Light Snow
2:55 AM 30.2 °F 15.9 °F 30.2 °F 100% 29.78 in 1.5 mi NW 26.5 mph 32.2 mph N/A Snow Light Snow
3:15 AM 30.2 °F 17.1 °F 30.2 °F 100% 29.78 in 1.2 mi NW 21.9 mph 29.9 mph N/A Snow Light Snow
3:35 AM 30.2 °F 17.1 °F 30.2 °F 100% 29.78 in 0.8 mi NW 21.9 mph 27.6 mph N/A Snow Light Snow
3:55 AM 30.2 °F 16.5 °F 30.2 °F 100% 29.77 in 0.8 mi NW 24.2 mph 33.4 mph N/A Snow Light Snow
4:15 AM 30.2 °F 16.5 °F 30.2 °F 100% 29.75 in 0.5 mi NW 24.2 mph 33.4 mph N/A Fog Light Freezing Fog
4:35 AM 30.2 °F 15.7 °F 30.2 °F 100% 29.74 in 0.5 mi NW 27.6 mph 36.8 mph N/A Fog Light Freezing Fog
4:55 AM 30.2 °F 15.9 °F 30.2 °F 100% 29.74 in 0.2 mi NW 26.5 mph 33.4 mph N/A Fog Light Freezing Fog
5:15 AM 30.2 °F 15.4 °F 30.2 °F 100% 29.74 in 0.2 mi NW 28.8 mph 40.3 mph N/A Fog Light Freezing Fog
5:35 AM 30.2 °F 15.7 °F 30.2 °F 100% 29.73 in 0.5 mi NW 27.6 mph 36.8 mph N/A Snow Light Snow
5:55 AM 30.2 °F 15.7 °F 30.2 °F 100% 29.73 in 0.8 mi NW 27.6 mph 34.5 mph N/A Snow Light Snow
6:35 AM 30.2 °F 16.2 °F 30.2 °F 100% 29.72 in 1.5 mi NW 25.3 mph 32.2 mph N/A Snow Light Snow
6:55 AM 30.2 °F 17.4 °F 30.2 °F 100% 29.72 in 1.5 mi NW 20.7 mph 33.4 mph N/A Snow Light Snow
7:15 AM 30.2 °F 16.2 °F 30.2 °F 100% 29.71 in 1.8 mi NW 25.3 mph 34.5 mph N/A Snow Light Snow
7:35 AM 30.2 °F 15.9 °F 30.2 °F 100% 29.71 in 1.0 mi NW 26.5 mph - N/A Snow Light Snow
7:55 AM 30.2 °F 17.1 °F 30.2 °F 100% 29.70 in 0.5 mi NW 21.9 mph 35.7 mph N/A Snow Light Snow
8:55 AM 28.4 °F 13.3 °F 28.4 °F 100% 29.68 in 0.5 mi NW 27.6 mph 35.7 mph N/A Snow Light Snow
9:15 AM 28.4 °F 13.3 °F 28.4 °F 100% 29.67 in 0.8 mi NW 27.6 mph 35.7 mph N/A Snow Light Snow
9:55 AM 28.4 °F 13.0 °F 28.4 °F 100% 29.66 in 0.5 mi NW 28.8 mph 41.4 mph N/A Snow Light Snow
10:15 AM 28.4 °F 12.7 °F 28.4 °F 100% 29.66 in 0.5 mi NW 29.9 mph 35.7 mph N/A Snow Light Snow
10:35 AM 28.4 °F 12.7 °F 28.4 °F 100% 29.65 in 0.2 mi WNW 29.9 mph 39.1 mph N/A Snow Light Snow
10:55 AM 28.4 °F 12.3 °F 28.4 °F 100% 29.65 in 0.5 mi NW 32.2 mph 41.4 mph N/A Snow Light Snow
11:15 AM 28.4 °F 11.8 °F 28.4 °F 100% 29.64 in 0.2 mi NW 34.5 mph 43.7 mph N/A Snow Light Snow
11:35 AM 28.4 °F 11.8 °F 28.4 °F 100% 29.64 in 0.2 mi NW 34.5 mph 46.0 mph N/A Snow Snow
11:55 AM 28.4 °F 11.8 °F 28.4 °F 100% 29.64 in 0.2 mi NW 34.5 mph 41.4 mph N/A Rain Light Freezing Rain
12:15 PM 28.4 °F 11.6 °F 28.4 °F 100% 29.63 in 0.2 mi WNW 35.7 mph 43.7 mph N/A Rain Light Freezing Rain
12:35 PM 28.4 °F 12.7 °F 28.4 °F 100% 29.64 in 0.2 mi WNW 29.9 mph 41.4 mph N/A Snow Heavy Snow
12:55 PM 28.4 °F 12.7 °F 28.4 °F 100% 29.64 in 0.2 mi WNW 29.9 mph 41.4 mph N/A   Overcast
1:15 PM 28.4 °F 11.6 °F 28.4 °F 100% 29.63 in 0.2 mi WNW 35.7 mph 42.6 mph N/A   Overcast
1:35 PM 28.4 °F 11.4 °F 28.4 °F 100% 29.63 in 0.2 mi WNW 36.8 mph 51.8 mph N/A   Overcast
1:55 PM 28.4 °F 12.0 °F 28.4 °F 100% 29.63 in 0.2 mi WNW 33.4 mph 46.0 mph N/A   Overcast
2:15 PM 28.4 °F 12.7 °F 28.4 °F 100% 29.63 in 0.2 mi WNW 29.9 mph 43.7 mph N/A   Overcast
2:35 PM 28.4 °F 11.6 °F 28.4 °F 100% 29.63 in 0.2 mi WNW 35.7 mph 47.2 mph N/A   Overcast
2:55 PM 28.4 °F 10.6 °F 28.4 °F 100% 29.62 in 0.2 mi WNW 41.4 mph 49.5 mph N/A   Overcast
3:15 PM 28.4 °F 11.4 °F 28.4 °F 100% 29.62 in 0.2 mi WNW 36.8 mph 48.3 mph N/A   Overcast
3:35 PM 28.4 °F 11.0 °F 28.4 °F 100% 29.62 in 0.2 mi WNW 39.1 mph 50.6 mph N/A Snow Heavy Snow
3:55 PM 28.4 °F 11.6 °F 28.4 °F 100% 29.62 in 0.2 mi WNW 35.7 mph 49.5 mph N/A Snow Snow
4:15 PM 28.4 °F 11.0 °F 28.4 °F 100% 29.62 in 0.2 mi WNW 39.1 mph 51.8 mph N/A Snow Snow
4:35 PM - - - N/A% 29.62 in 0.2 mi North - - N/A   Unknown
4:55 PM - - - N/A% 29.62 in 0.2 mi WNW 41.4 mph 54.1 mph N/A   Unknown
5:15 PM 28.4 °F 10.8 °F 28.4 °F 100% 29.62 in 0.2 mi WNW 40.3 mph 49.5 mph N/A Snow Light Snow
5:35 PM 28.4 °F 11.0 °F 28.4 °F 100% 29.62 in 0.2 mi WNW 39.1 mph 56.4 mph N/A Snow Light Snow
5:55 PM 28.4 °F 11.4 °F 28.4 °F 100% 29.62 in 0.2 mi WNW 36.8 mph 47.2 mph N/A Snow Light Snow
6:15 PM 28.4 °F 11.2 °F 28.4 °F 100% 29.63 in 0.2 mi WNW 38.0 mph 51.8 mph N/A Snow Snow
6:35 PM 28.4 °F 11.2 °F 28.4 °F 100% 29.62 in 0.2 mi WNW 38.0 mph 55.2 mph N/A Snow Light Snow
6:55 PM 28.4 °F 11.4 °F 28.4 °F 100% 29.62 in 0.2 mi WNW 36.8 mph 47.2 mph N/A Snow Light Snow
7:15 PM - - - N/A% 29.61 in 0.5 mi WNW 41.4 mph 50.6 mph N/A   Unknown
7:35 PM 30.2 °F 14.5 °F 30.2 °F 100% 29.61 in 1.0 mi WNW 33.4 mph 47.2 mph N/A Snow Light Snow
7:55 PM 30.2 °F 13.9 °F 30.2 °F 100% 29.60 in 0.8 mi WNW 36.8 mph 51.8 mph N/A Snow Light Snow
8:15 PM 30.2 °F 13.3 °F 30.2 °F 100% 29.59 in 0.5 mi WNW 40.3 mph 54.1 mph N/A Snow Light Snow
8:35 PM 30.2 °F 13.3 °F 30.2 °F 100% 29.58 in 0.5 mi WNW 40.3 mph 56.4 mph N/A Snow Light Snow
8:55 PM 30.2 °F 13.9 °F 30.2 °F 100% 29.58 in 0.8 mi WNW 36.8 mph 48.3 mph N/A Snow Light Snow
9:15 PM 30.2 °F 14.3 °F 30.2 °F 100% 29.57 in 0.8 mi WNW 34.5 mph 50.6 mph N/A   Overcast
9:35 PM 30.2 °F 13.7 °F 30.2 °F 100% 29.57 in 0.8 mi WNW 38.0 mph 49.5 mph N/A   Overcast
9:55 PM 30.2 °F 13.7 °F 30.2 °F 100% 29.56 in 0.5 mi WNW 38.0 mph 48.3 mph N/A Snow Light Snow
10:15 PM 30.2 °F 13.7 °F 30.2 °F 100% 29.56 in 1.0 mi WNW 38.0 mph 48.3 mph N/A Snow Light Snow
10:35 PM 30.2 °F 14.3 °F 30.2 °F 100% 29.56 in 1.2 mi WNW 34.5 mph 47.2 mph N/A Snow Light Snow
10:55 PM 30.2 °F 13.7 °F 30.2 °F 100% 29.54 in 0.8 mi WNW 38.0 mph 52.9 mph N/A Snow Light Snow
11:15 PM 30.2 °F 13.3 °F 30.2 °F 100% 29.53 in 0.8 mi WNW 40.3 mph 48.3 mph N/A Snow Light Snow
11:35 PM 30.2 °F 14.1 °F 30.2 °F 100% 29.52 in 0.8 mi WNW 35.7 mph 50.6 mph N/A Snow Light Snow
11:55 PM 30.2 °F 13.7 °F 30.2 °F 100% 29.51 in 1.2 mi WNW 38.0 mph 51.8 mph N/A Snow Light Snow